North Platte, NE

4:25 AM CST on February 21, 2017 (GMT -0600)
North Platte Regional-Bird

Weather History for KLBF - May, 2013

Change the Weather History Date:

Tuesday, May 14, 2013

  Actual Average Record
Temperature  
Mean Temperature 73 °F 57 °F  
Max Temperature 97 °F 71 °F 97 °F (2013)
Min Temperature 49 °F 44 °F 26 °F (2004)
Degree Days  
Heating Degree Days 0 8  
Month to date heating degree days 184 143  
Since 1 July heating degree days 6670 6533  
Cooling Degree Days 8 1  
Month to date cooling degree days 14 4  
Year to date cooling degree days 15 7  
Growing Degree Days 22 (Base 50)    
Moisture  
Dew Point 45 °F    
Average Humidity 46    
Maximum Humidity 77    
Minimum Humidity 14    
Precipitation  
Precipitation 0.00 in 0.10 in 1.44 in (1951)
Month to date precipitation 1.39 1.33  
Year to date precipitation 4.43 5.49  
Snow  
Snow 0.00 in 0.00 in T in (1941)
Month to date snowfall 0.9 0.0  
Since 1 July snowfall 30.2 28.5  
Snow Depth 0.00 in    
Sea Level Pressure  
Sea Level Pressure 29.74 in    
Wind  
Wind Speed 8 mph (North)    
Max Wind Speed 17 mph    
Max Gust Speed 24 mph    
Visibility 10 miles    
Events      
T = Trace of Precipitation, MM = Missing Value Source: NWS Daily Summary

Daily Weather History Graph

Daily Weather History Graph

Search for Another Location

Airport or City:

Trip Planner

Search our weather history database for the weather conditions in past years. The results will help you decide how hot, cold, wet, or windy it might be!

Date:

Astronomy

May. 14, 2013 Rise Set
Actual Time 6:25 AM CDT 8:53 PM CDT
Civil Twilight 5:54 AM CDT 9:24 PM CDT
Nautical Twilight 5:15 AM CDT 10:03 PM CDT
Astronomical Twilight 4:31 AM CDT 10:47 PM CDT
Moon 10:06 AM CDT (5/14) 12:02 AM CDT (5/14)
Length of Visible Light 15h 30m
Length of Day
14h 28m
Waxing Crescent, 19% of the Moon is Illuminated
May 14
Waxing Crescent
May 17
First Quarter
May 24
Full
May 31
Last Quarter
Jun 8
New

Hourly Weather History & Observations

Time (CDT) Temp. Dew Point Humidity Pressure Visibility Wind Dir Wind Speed Gust Speed Precip Events Conditions
12:53 AM 64.0 °F 44.1 °F 48% 29.81 in 10.0 mi SSE 4.6 mph - N/A   Clear
1:53 AM 64.9 °F 43.0 °F 45% 29.78 in 10.0 mi South 3.5 mph - N/A   Clear
2:53 AM 64.0 °F 43.0 °F 46% 29.76 in 10.0 mi SSW 4.6 mph - N/A   Clear
3:53 AM 62.1 °F 42.1 °F 48% 29.75 in 10.0 mi Calm Calm - N/A   Clear
4:53 AM 55.0 °F 43.0 °F 64% 29.78 in 10.0 mi NNW 4.6 mph - N/A   Clear
5:53 AM 53.1 °F 43.0 °F 69% 29.79 in 10.0 mi WNW 3.5 mph - N/A   Clear
6:53 AM 52.0 °F 44.1 °F 74% 29.80 in 10.0 mi Calm Calm - N/A   Clear
7:53 AM 60.1 °F 48.0 °F 64% 29.78 in 10.0 mi NW 3.5 mph - N/A   Clear
8:53 AM 68.0 °F 48.0 °F 49% 29.78 in 10.0 mi West 6.9 mph - N/A   Clear
9:53 AM 75.9 °F 50.0 °F 40% 29.77 in 10.0 mi West 10.4 mph - N/A   Clear
10:53 AM 84.0 °F 52.0 °F 33% 29.74 in 10.0 mi West 8.1 mph - N/A   Clear
11:53 AM 88.0 °F 50.0 °F 27% 29.74 in 10.0 mi WNW 8.1 mph - N/A   Clear
12:53 PM 93.0 °F 44.1 °F 18% 29.71 in 10.0 mi NNW 11.5 mph 21.9 mph N/A   Clear
1:53 PM 93.0 °F 42.1 °F 17% 29.70 in 10.0 mi North 10.4 mph - N/A   Clear
2:53 PM 96.1 °F 42.1 °F 15% 29.68 in 10.0 mi North 6.9 mph - N/A   Clear
3:53 PM 96.1 °F 39.9 °F 14% 29.68 in 10.0 mi North 12.7 mph 16.1 mph N/A   Clear
4:53 PM 96.1 °F 43.0 °F 16% 29.67 in 10.0 mi North 12.7 mph 16.1 mph N/A   Clear
5:53 PM 93.9 °F 43.0 °F 17% 29.67 in 10.0 mi NNE 10.4 mph - N/A   Clear
6:53 PM 91.0 °F 46.0 °F 21% 29.68 in 10.0 mi ENE 12.7 mph 18.4 mph N/A   Clear
7:53 PM 87.1 °F 46.0 °F 24% 29.68 in 10.0 mi ENE 10.4 mph - N/A   Clear
8:53 PM 80.1 °F 46.9 °F 31% 29.70 in 10.0 mi ENE 10.4 mph - N/A   Clear
9:53 PM 78.1 °F 48.0 °F 35% 29.73 in 10.0 mi ENE 16.1 mph - N/A   Clear
10:53 PM 75.0 °F 46.9 °F 37% 29.76 in 10.0 mi East 11.5 mph - N/A   Clear
11:53 PM 66.0 °F 44.1 °F 45% 29.75 in 10.0 mi East 9.2 mph - N/A   Clear